sim
Sign-in with your pilot id or email,
or register
Callsign
Passwort

Schedule Details

Flight Number: RYR7777 (4)
Departure: Chania International Airport (LGSA) at 13:40
Arrival: Thessaloniki International Airport (LGTS) at 15:00
Route: Ryanair Passenger Schedule. Enter filed route here before submitting Pirep.

Weather Information
Getting current METAR information for LGSA 172320Z 00000KT 9999 FEW016 BKN100 23/21 Q1013
Getting current METAR information for LGTS 172250Z 11004KT 9999 FEW025 21/16 Q1015 NOSIG

Schedule Frequency

Route Map